Wiscasset, ME

5:17 AM EDT on June 27, 2017 (GMT -0400)
Wiscasset

Weather History for KIWI - July, 2014

Change the Weather History Date:

Tuesday, July 22, 2014

  Actual Average Record
Temperature  
Mean Temperature 67 °F -  
Max Temperature 79 °F 74 °F 98 °F (2011)
Min Temperature 55 °F 54 °F 50 °F (1996)
Cooling Degree Days 2    
Growing Degree Days 17 (Base 50)    
Moisture  
Dew Point 62 °F    
Average Humidity 79    
Maximum Humidity 97    
Minimum Humidity 60    
Precipitation  
Precipitation 0.00 in - - ()
Sea Level Pressure  
Sea Level Pressure 30.08 in    
Wind  
Wind Speed 2 mph (South)    
Max Wind Speed 8 mph    
Max Gust Speed -    
Visibility 9 miles    
Events      
Averages and records for this station are not official NWS values.
T = Trace of Precipitation, MM = Missing Value Source: NWS Daily Summary

Daily Weather History Graph

Daily Weather History Graph

Search for Another Location

Airport or City:

Trip Planner

Search our weather history database for the weather conditions in past years. The results will help you decide how hot, cold, wet, or windy it might be!

Date:

Astronomy

Jul. 22, 2014 Rise Set
Actual Time 5:16 AM EDT 8:13 PM EDT
Civil Twilight 4:42 AM EDT 8:47 PM EDT
Nautical Twilight 3:58 AM EDT 9:30 PM EDT
Astronomical Twilight 3:07 AM EDT 10:21 PM EDT
Moon 1:48 AM EDT (7/22) 4:47 PM EDT (7/22)
Length of Visible Light 16h 04m
Length of Day
14h 56m
Waning Crescent, 16% of the Moon is Illuminated
Jul 22
Waning Crescent
Jul 26
New
Aug 3
First Quarter
Aug 10
Full
Aug 17
Last Quarter

Hourly Weather History & Observations

Time (EDT) Temp. Dew Point Humidity Pressure Visibility Wind Dir Wind Speed Gust Speed Precip Events Conditions
12:53 AM 59.0 °F 57.0 °F 93% 30.16 in 8.0 mi Calm Calm - N/A   Clear
1:53 AM 57.9 °F 57.0 °F 97% 30.15 in 8.0 mi Calm Calm - N/A   Clear
2:53 AM 57.9 °F 55.9 °F 93% 30.14 in 8.0 mi Calm Calm - N/A   Clear
3:53 AM 57.0 °F 55.0 °F 93% 30.14 in 8.0 mi Calm Calm - N/A   Clear
4:53 AM 55.9 °F 55.0 °F 97% 30.14 in 9.0 mi Calm Calm - N/A   Clear
5:53 AM 55.9 °F 55.0 °F 97% 30.14 in 7.0 mi Calm Calm - N/A   Clear
6:03 AM 57.0 °F 55.0 °F 93% 30.14 in 7.0 mi Calm Calm - N/A   Scattered Clouds
6:53 AM 61.0 °F 59.0 °F 93% 30.14 in 10.0 mi Calm Calm - N/A   Clear
7:53 AM 66.9 °F 62.1 °F 84% 30.14 in 10.0 mi SSW 3.5 mph - N/A   Clear
8:53 AM 71.1 °F 63.0 °F 75% 30.13 in 10.0 mi SSW 5.8 mph - N/A   Clear
10:53 AM 77.0 °F 64.0 °F 64% 30.13 in 10.0 mi SE 3.5 mph - N/A   Clear
11:53 AM 79.0 °F 64.0 °F 60% 30.11 in 10.0 mi SE 8.1 mph - N/A   Clear
12:53 PM 79.0 °F 64.9 °F 62% 30.08 in 10.0 mi South 5.8 mph - N/A   Clear
1:53 PM 79.0 °F 64.9 °F 62% 30.07 in 10.0 mi South 6.9 mph - N/A   Clear
2:53 PM 78.1 °F 66.0 °F 66% 30.07 in 10.0 mi SSE 6.9 mph - N/A   Clear
3:53 PM 78.1 °F 64.9 °F 64% 30.05 in 10.0 mi SSE 8.1 mph - N/A   Clear
4:53 PM 78.1 °F 64.9 °F 64% 30.04 in 10.0 mi South 6.9 mph - N/A   Clear
5:53 PM 78.1 °F 64.9 °F 64% 30.02 in 10.0 mi South 4.6 mph - N/A   Clear
6:53 PM 75.9 °F 64.0 °F 67% 30.01 in 10.0 mi SSW 5.8 mph - N/A   Clear
7:53 PM 73.0 °F 64.9 °F 76% 30.00 in 10.0 mi Calm Calm - N/A   Clear
8:53 PM 72.0 °F 64.9 °F 78% 30.00 in 10.0 mi Calm Calm - N/A   Clear
9:53 PM 70.0 °F 64.9 °F 84% 29.99 in 10.0 mi Calm Calm - N/A   Clear
10:53 PM 70.0 °F 64.9 °F 84% 29.97 in 10.0 mi Calm Calm - N/A   Clear
11:53 PM 66.9 °F 64.9 °F 93% 29.95 in 10.0 mi Calm Calm - N/A   Clear